Weather History for Chipley, FL

Change the Weather History Date:

Tuesday, January 29, 2013

  Actual Average (KMAI) Record (KMAI)
Temperature  
Mean Temperature 73 °F 52 °F  
Max Temperature 78 °F 63 °F 82 °F (2013)
Min Temperature 68 °F 40 °F 24 °F (2014)
Degree Days  
Heating Degree Days 0    
Month to date heating degree days  
Since 1 July heating degree days  
Cooling Degree Days 8    
Month to date cooling degree days  
Year to date cooling degree days  
Growing Degree Days 23 (Base 50)    
Moisture  
Dew Point 68 °F    
Average Humidity 85    
Maximum Humidity 94    
Minimum Humidity 74    
Precipitation  
Precipitation 0.00 in 0.19 in 0.50 in (2005)
Month to date precipitation 4.65  
Year to date precipitation 4.65  
Sea Level Pressure  
Sea Level Pressure 29.98 in    
Wind  
Wind Speed 9 mph (SSE)    
Max Wind Speed 18 mph    
Max Gust Speed 28 mph    
Visibility 9 miles    
Events      
T = Trace of Precipitation, MM = Missing Value Source: NWS Daily Summary

Daily Weather History Graph

Daily Weather History Graph

Search for Another Location

Airport:

Trip Planner

Search our weather history database for the weather conditions in past years. The results will help you decide how hot, cold, wet, or windy it might be!

Date:

Astronomy

Jan. 29, 2013 Rise Set
Actual Time 6:35 AM CST 5:16 PM CST
Civil Twilight 6:10 AM CST 5:41 PM CST
Nautical Twilight 5:41 AM CST 6:10 PM CST
Astronomical Twilight 5:12 AM CST 6:38 PM CST
Moon 7:55 PM CST (1/29) 7:45 AM CST (1/29)
Length of Visible Light 11h 31m
Length of Day
10h 40m
Waning Gibbous, 93% of the Moon is Illuminated
Jan 29
Waning Gibbous
Feb 3
Last Quarter
Feb 10
New
Feb 17
First Quarter
Feb 25
Full

Hourly Weather History & Observations

Time (CST) Temp. Dew Point Humidity Pressure Visibility Wind Dir Wind Speed Gust Speed Precip Events Conditions
12:15 AM 68.0 °F 66.2 °F 94% 30.13 in 5.0 mi SSE 4.6 mph - N/A   Overcast
12:35 AM 68.0 °F 66.2 °F 94% 30.12 in 7.0 mi SSE 4.6 mph - N/A   Overcast
12:55 AM 68.0 °F 66.2 °F 94% 30.11 in 7.0 mi ESE 5.8 mph - N/A   Overcast
1:15 AM 68.0 °F 66.2 °F 94% 30.11 in 9.0 mi SSE 8.1 mph - N/A   Overcast
1:35 AM 69.8 °F 66.2 °F 88% 30.11 in 10.0 mi South 9.2 mph - N/A   Overcast
1:55 AM 69.8 °F 66.2 °F 88% 30.11 in 10.0 mi South 8.1 mph - N/A   Overcast
2:15 AM 69.8 °F 66.2 °F 88% 30.10 in 10.0 mi SSE 8.1 mph - N/A   Overcast
2:35 AM 69.8 °F 66.2 °F 88% 30.09 in 10.0 mi SSE 3.5 mph - N/A   Overcast
2:55 AM 69.8 °F 64.4 °F 83% 30.09 in 10.0 mi ESE 3.5 mph - N/A   Overcast
3:15 AM 69.8 °F 66.2 °F 88% 30.09 in 10.0 mi South 6.9 mph - N/A   Overcast
3:35 AM 69.8 °F 64.4 °F 83% 30.07 in 10.0 mi SSE 4.6 mph - N/A   Overcast
3:55 AM 69.8 °F 64.4 °F 83% 30.07 in 10.0 mi Calm Calm - N/A   Overcast
4:15 AM 69.8 °F 64.4 °F 83% 30.06 in 10.0 mi SE 5.8 mph - N/A   Overcast
4:35 AM 69.8 °F 64.4 °F 83% 30.06 in 10.0 mi SE 6.9 mph - N/A   Overcast
5:15 AM 68.0 °F 64.4 °F 88% 30.06 in 9.0 mi SSE 6.9 mph - N/A   Mostly Cloudy
5:35 AM 68.0 °F 64.4 °F 88% 30.06 in 10.0 mi SE 3.5 mph - N/A   Mostly Cloudy
5:55 AM 68.0 °F 64.4 °F 88% 30.06 in 10.0 mi East 3.5 mph - N/A   Mostly Cloudy
6:15 AM 68.0 °F 64.4 °F 88% 30.06 in 9.0 mi ESE 3.5 mph - N/A   Overcast
6:35 AM 68.0 °F 64.4 °F 88% 30.07 in 10.0 mi Calm Calm - N/A   Overcast
6:55 AM 68.0 °F 64.4 °F 88% 30.07 in 9.0 mi ESE 3.5 mph - N/A   Overcast
7:15 AM 68.0 °F 66.2 °F 94% 30.07 in 6.0 mi South 4.6 mph - N/A   Overcast
7:35 AM 68.0 °F 66.2 °F 94% 30.07 in 4.0 mi South 8.1 mph - N/A   Overcast
7:55 AM 69.8 °F 66.2 °F 88% 30.06 in 3.0 mi South 8.1 mph - N/A   Overcast
8:15 AM 69.8 °F 66.2 °F 88% 30.06 in 3.0 mi South 8.1 mph - N/A   Overcast
8:35 AM 69.8 °F 66.2 °F 88% 30.06 in 5.0 mi South 9.2 mph - N/A   Overcast
8:55 AM 69.8 °F 66.2 °F 88% 30.06 in 6.0 mi South 9.2 mph - N/A   Overcast
9:15 AM 73.4 °F 68.0 °F 83% 30.06 in 7.0 mi South 9.2 mph 17.3 mph N/A   Overcast
9:35 AM 73.4 °F 68.0 °F 83% 30.06 in 10.0 mi South 10.4 mph 23.0 mph N/A   Overcast
9:55 AM 75.2 °F 68.0 °F 78% 30.05 in 10.0 mi South 12.7 mph 19.6 mph N/A   Mostly Cloudy
10:15 AM 75.2 °F 68.0 °F 78% 30.05 in 10.0 mi South 15.0 mph 20.7 mph N/A   Overcast
10:35 AM 77.0 °F 68.0 °F 74% 30.04 in 10.0 mi South 12.7 mph 21.9 mph N/A   Overcast
10:55 AM 77.0 °F 68.0 °F 74% 30.03 in 10.0 mi South 10.4 mph 24.2 mph N/A   Overcast
11:15 AM 77.0 °F 68.0 °F 74% 30.02 in 10.0 mi South 17.3 mph 24.2 mph N/A   Overcast
11:35 AM 75.2 °F 69.8 °F 83% 30.01 in 10.0 mi South 13.8 mph 23.0 mph N/A   Overcast
11:55 AM 75.2 °F 68.0 °F 78% 30.01 in 10.0 mi South 12.7 mph 24.2 mph N/A   Overcast
12:15 PM 75.2 °F 68.0 °F 78% 29.99 in 10.0 mi South 16.1 mph 25.3 mph N/A   Overcast
12:35 PM 75.2 °F 68.0 °F 78% 29.99 in 10.0 mi South 11.5 mph 19.6 mph N/A   Overcast
12:55 PM 75.2 °F 68.0 °F 78% 29.98 in 10.0 mi South 11.5 mph 20.7 mph N/A   Overcast
1:15 PM 77.0 °F 69.8 °F 78% 29.96 in 10.0 mi South 10.4 mph 17.3 mph N/A   Mostly Cloudy
1:35 PM 78.8 °F 69.8 °F 74% 29.95 in 10.0 mi South 11.5 mph 18.4 mph N/A   Overcast
1:55 PM 78.8 °F 69.8 °F 74% 29.94 in 10.0 mi South 10.4 mph 18.4 mph N/A   Overcast
2:15 PM 77.0 °F 69.8 °F 78% 29.94 in 9.0 mi South 13.8 mph - N/A   Overcast
2:35 PM 77.0 °F 69.8 °F 78% 29.92 in 10.0 mi South 13.8 mph 23.0 mph N/A   Overcast
2:55 PM 78.8 °F 69.8 °F 74% 29.92 in 10.0 mi South 10.4 mph 20.7 mph N/A   Overcast
3:15 PM 77.0 °F 69.8 °F 78% 29.91 in 10.0 mi South 16.1 mph 23.0 mph N/A   Overcast
3:35 PM 77.0 °F 69.8 °F 78% 29.92 in 10.0 mi South 12.7 mph 25.3 mph N/A   Mostly Cloudy
3:55 PM 77.0 °F 69.8 °F 78% 29.91 in 10.0 mi South 12.7 mph 23.0 mph N/A   Unknown
4:15 PM 77.0 °F 69.8 °F 78% 29.91 in 10.0 mi South 12.7 mph 20.7 mph N/A   Overcast
4:35 PM 75.2 °F 69.8 °F 83% 29.89 in 10.0 mi South 12.7 mph 24.2 mph N/A   Overcast
4:55 PM 75.2 °F 69.8 °F 83% 29.90 in 9.0 mi South 9.2 mph 18.4 mph N/A   Overcast
5:15 PM 75.2 °F 69.8 °F 83% 29.90 in 9.0 mi South 9.2 mph - N/A   Overcast
5:35 PM 73.4 °F 69.8 °F 88% 29.89 in 6.0 mi South 18.4 mph 26.5 mph N/A   Overcast
5:55 PM 73.4 °F 69.8 °F 88% 29.89 in 9.0 mi South 11.5 mph 19.6 mph N/A   Overcast
6:15 PM 73.4 °F 69.8 °F 88% 29.89 in 9.0 mi South 12.7 mph 17.3 mph N/A   Overcast
6:35 PM 73.4 °F 69.8 °F 88% 29.89 in 9.0 mi South 15.0 mph 26.5 mph N/A   Overcast
6:55 PM 73.4 °F 69.8 °F 88% 29.89 in 8.0 mi South 15.0 mph 21.9 mph N/A   Overcast
7:15 PM 73.4 °F 69.8 °F 88% 29.89 in 9.0 mi South 10.4 mph 23.0 mph N/A   Overcast
7:35 PM 73.4 °F 69.8 °F 88% 29.88 in 9.0 mi South 12.7 mph 20.7 mph N/A   Overcast
7:55 PM 73.4 °F 69.8 °F 88% 29.88 in 9.0 mi South 12.7 mph 21.9 mph N/A   Overcast
8:15 PM 73.4 °F 69.8 °F 88% 29.88 in 10.0 mi South 13.8 mph 20.7 mph N/A   Overcast
8:35 PM 73.4 °F 69.8 °F 88% 29.88 in 9.0 mi South 13.8 mph 23.0 mph N/A   Overcast
8:55 PM 73.4 °F 69.8 °F 88% 29.87 in 9.0 mi South 12.7 mph 20.7 mph N/A   Overcast
9:15 PM 73.4 °F 69.8 °F 88% 29.87 in 8.0 mi South 13.8 mph 21.9 mph N/A   Overcast
9:35 PM 73.4 °F 69.8 °F 88% 29.86 in 8.0 mi South 15.0 mph 23.0 mph N/A   Overcast
9:55 PM 73.4 °F 69.8 °F 88% 29.84 in 10.0 mi South 17.3 mph 27.6 mph N/A   Overcast
10:15 PM 73.4 °F 69.8 °F 88% 29.85 in 10.0 mi South 13.8 mph 24.2 mph N/A   Overcast
10:35 PM 73.4 °F 69.8 °F 88% 29.84 in 10.0 mi South 16.1 mph 25.3 mph N/A   Overcast
10:55 PM 73.4 °F 69.8 °F 88% 29.84 in 10.0 mi South 16.1 mph 27.6 mph N/A   Overcast
11:15 PM 73.4 °F 69.8 °F 88% 29.84 in 10.0 mi South 17.3 mph 24.2 mph N/A   Overcast
11:35 PM 73.4 °F 69.8 °F 88% 29.84 in 10.0 mi South 13.8 mph 25.3 mph N/A   Overcast
11:55 PM 73.4 °F 69.8 °F 88% 29.82 in 10.0 mi South 16.1 mph 24.2 mph N/A   Overcast